Weather History for Statesville, NC

Change the Weather History Date:

Tuesday, January 8, 2013

  Actual Average (KHKY) Record (KHKY)
Temperature  
Mean Temperature 41 °F -  
Max Temperature 50 °F 44 °F 68 °F (1965)
Min Temperature 32 °F 27 °F 3 °F (1970)
Degree Days  
Heating Degree Days 24    
Moisture  
Dew Point 35 °F    
Average Humidity 69    
Maximum Humidity 85    
Minimum Humidity 57    
Precipitation  
Precipitation 0.00 in - - ()
Sea Level Pressure  
Sea Level Pressure 30.39 in    
Wind  
Wind Speed 0 mph (ESE)    
Max Wind Speed 5 mph    
Max Gust Speed -    
Visibility 10 miles    
Events      
Averages and records for this station are not official NWS values.
T = Trace of Precipitation, MM = Missing Value Source: NWS Daily Summary

Daily Weather History Graph

Daily Weather History Graph

Search for Another Location

Airport:

Trip Planner

Search our weather history database for the weather conditions in past years. The results will help you decide how hot, cold, wet, or windy it might be!

Date:

Astronomy

Jan. 08, 2013 Rise Set
Actual Time 7:34 AM EST 5:27 PM EST
Civil Twilight 7:06 AM EST 5:55 PM EST
Nautical Twilight 6:34 AM EST 6:27 PM EST
Astronomical Twilight 6:03 AM EST 6:58 PM EST
Moon 4:06 AM EST (1/8) 2:27 PM EST (1/8)
Length of Visible Light 10h 49m
Length of Day
9h 53m
Waning Crescent, 14% of the Moon is Illuminated
Jan 8
Waning Crescent
Jan 11
New
Jan 18
First Quarter
Jan 26
Full
Feb 3
Last Quarter

Hourly Weather History & Observations

Time (EST) Temp. Windchill Dew Point Humidity Pressure Visibility Wind Dir Wind Speed Gust Speed Precip Events Conditions
9:15 AM 32.0 °F - 27.9 °F 85% 30.43 in 7.0 mi Calm Calm - N/A   Clear
9:35 AM 34.5 °F - 29.1 °F 81% 30.44 in 10.0 mi Calm Calm - N/A   Clear
9:55 AM 35.6 °F - 30.0 °F 80% 30.44 in 10.0 mi Calm Calm - N/A   Mostly Cloudy
10:15 AM 36.9 °F - 31.5 °F 81% 30.45 in 10.0 mi Calm Calm - N/A   Overcast
10:35 AM 39.2 °F - 31.8 °F 75% 30.45 in 10.0 mi Calm Calm - N/A   Overcast
10:55 AM 40.3 °F - 32.0 °F 72% 30.44 in 10.0 mi Calm Calm - N/A   Overcast
11:15 AM 41.4 °F - 32.0 °F 69% 30.43 in 10.0 mi Calm Calm - N/A   Mostly Cloudy
11:35 AM 43.2 °F - 32.7 °F 67% 30.43 in 10.0 mi Calm Calm - N/A   Scattered Clouds
11:55 AM 43.9 °F - 32.4 °F 64% 30.42 in 10.0 mi Calm Calm - N/A   Mostly Cloudy
12:15 PM 45.9 °F - 33.4 °F 62% 30.41 in 10.0 mi Calm Calm - N/A   Overcast
12:35 PM 45.9 °F - 32.2 °F 59% 30.40 in 10.0 mi Calm Calm - N/A   Mostly Cloudy
12:55 PM 45.9 °F - 32.0 °F 58% 30.40 in 10.0 mi Calm Calm - N/A   Overcast
1:15 PM 46.8 °F - 32.5 °F 58% 30.39 in 10.0 mi Calm Calm - N/A   Overcast
1:35 PM 47.1 °F - 32.5 °F 57% 30.38 in 10.0 mi Calm Calm - N/A   Overcast
1:55 PM 48.0 °F - 34.2 °F 59% 30.37 in 10.0 mi Calm Calm - N/A   Overcast
2:15 PM 48.7 °F - 35.1 °F 59% 30.37 in 10.0 mi Calm Calm - N/A   Overcast
2:55 PM 49.1 °F - 35.1 °F 58% 30.36 in 10.0 mi Calm Calm - N/A   Overcast
3:15 PM 49.3 °F - 35.1 °F 58% 30.37 in 10.0 mi Calm Calm - N/A   Overcast
3:35 PM 49.5 °F - 35.1 °F 58% 30.35 in 10.0 mi Calm Calm - N/A   Overcast
3:55 PM 50.7 °F - 35.8 °F 57% 30.36 in 10.0 mi Calm Calm - N/A   Overcast
4:15 PM 50.0 °F - 35.8 °F 58% 30.37 in 10.0 mi Calm Calm - N/A   Overcast
4:35 PM 50.0 °F - 36.1 °F 59% 30.37 in 10.0 mi Calm Calm - N/A   Overcast
4:55 PM 50.0 °F - 37.6 °F 62% 30.37 in 10.0 mi Calm Calm - N/A   Overcast
5:15 PM 49.3 °F - 36.5 °F 61% 30.36 in 10.0 mi Calm Calm - N/A   Overcast
5:35 PM 48.6 °F - 37.0 °F 64% 30.36 in 10.0 mi East 3.5 mph - N/A   Overcast
5:55 PM 48.4 °F - 36.9 °F 64% 30.37 in 10.0 mi Calm Calm - N/A   Overcast
6:15 PM 47.7 °F - 36.7 °F 66% 30.37 in 10.0 mi Calm Calm - N/A   Overcast
6:35 PM 46.6 °F - 36.7 °F 68% 30.37 in 10.0 mi Calm Calm - N/A   Overcast
6:55 PM 46.6 °F - 37.8 °F 71% 30.37 in 10.0 mi Calm Calm - N/A   Overcast
7:35 PM 46.8 °F - 37.4 °F 70% 30.38 in 10.0 mi East 3.5 mph - N/A   Overcast
7:55 PM 46.4 °F - 37.4 °F 71% 30.38 in 10.0 mi Calm Calm - N/A   Overcast
8:15 PM 46.0 °F - 37.4 °F 72% 30.38 in 10.0 mi Calm Calm - N/A   Mostly Cloudy
8:35 PM 45.9 °F - 36.9 °F 71% 30.39 in 10.0 mi Calm Calm - N/A   Mostly Cloudy
8:55 PM 44.6 °F - 36.7 °F 74% 30.39 in 10.0 mi Calm Calm - N/A   Scattered Clouds
9:15 PM 40.8 °F - 36.0 °F 83% 30.38 in 10.0 mi Calm Calm - N/A   Clear
9:35 PM 40.3 °F 37.1 °F 35.2 °F 82% 30.39 in 10.0 mi West 4.6 mph - N/A   Clear
9:55 PM 40.6 °F - 36.1 °F 84% 30.39 in 10.0 mi Calm Calm - N/A   Mostly Cloudy
10:35 PM 41.0 °F - 36.5 °F 84% 30.39 in 10.0 mi Calm Calm - N/A   Mostly Cloudy
11:15 PM 42.3 °F - 37.6 °F 83% 30.39 in 10.0 mi Calm Calm - N/A   Overcast
11:35 PM 41.5 °F - 37.2 °F 85% 30.40 in 10.0 mi Calm Calm - N/A   Overcast